Powrót do katalogu

STARLINK-6169

AktywnyŁącznośćVLEO
NORAD 56889·PAYLOAD·🇺🇸 United States

Wystrzelony Jun 12, 2023 z Cape Canaveral Space Force Station

Loading…

Następne Przeloty (najbliższe 24 godziny)

TLE

ŚwieżeSource: CelesTrak SupGP

Epoka: Sep 15, 2026, 02:20 UTC

1 56889C 23083P   26258.09770833  .00009787  00000+0  35443-3 0  2582
2 56889  43.0013  95.2225 0001412 260.4756  14.4566 15.27578874    13

Śledź STARLINK-6169 w czasie rzeczywistym z AllMySat

Download on the App Store